RH
67 88 86 84 79 76 68 76 78 72 54 59 57 57 48 40 40 44 37 37 47 49 48 47 52 63 67 71 72 72 72 75 60 58 57 56 64 49 46 39 37 37 39 38
80 88 68 63 68 76 79 89 85 68 60 62 59 56 45 41 39 40 40 40 49 53 52 52 54 67 71 78 80 74 71 68 62 60 64 64 56 58 54 49 37 32 32 33
85 70 56 61 67 76 79 89 81 75 63 65 68 69 52 42 37 37 37 38 44 47 50 54 61 70 70 72 73 69 66 60 57 52 51 54 60 62 60 53 45 34 30 32
80 59 61 69 71 67 83 60 61 66 73 89 76 85 63 46 42 38 39 44 47 49 49 53 60 68 70 73 70 68 66 61 59 56 57 60 59 59 58 56 46 38 30 30
83 72 72 72 67 61 71 54 58 60 74 81 78 88 68 45 43 39 44 47 46 47 47 54 63 66 70 69 68 64 60 58 59 60 57 57 58 56 54 45 41 36 33 31
72 65 69 63 53 54 66 71 73 76 82 98 88 85 70 52 42 37 40 45 45 48 52 60 65 69 73 68 63 60 55 55 54 55 54 52 49 45 42 38 37 38 40 38
96 93 76 72 83 77 78 88 89 93 97 89 68 97 77 43 37 33 35 45 45 49 59 66 70 70 72 68 62 55 52 53 49 46 44 42 39 36 34 34 32 31 32 34
96 92 89 76 77 77 85 82 92 89 87 75 78 96 60 44 34 33 36 42 47 54 61 67 70 73 71 64 58 54 51 48 44 41 40 38 35 37 34 31 31 30 30 29
99 94 71 68 65 64 79 92 66 96 88 98 89 60 40 39 41 42 46 47 51 59 62 68 69 69 71 64 58 52 48 44 39 36 33 30 30 30 30 28 29 30 27 21
84 96 66 70 68 71 75 65 95 99 98 96 74 56 49 46 45 46 48 50 53 58 61 65 66 69 66 61 58 50 45 41 37 32 28 25 25 26 26 26 25 24 24 25
72 96 92 95 96 84 92 93 80 92 87 89 88 63 44 40 39 47 48 49 53 57 58 63 66 63 63 62 52 50 44 37 33 30 27 26 26 25 25 25 24 24 24 25
88 98 99 89 80 71 61 79 73 93 99 89 61 54 40 39 38 42 47 48 50 54 56 62 64 63 62 59 55 46 42 37 34 30 28 28 28 27 27 26 26 26 26 26
92 98 95 98 93 85 81 78 67 71 97 78 60 54 41 43 42 39 48 50 52 55 60 63 64 61 60 60 52 48 43 36 31 29 30 31 30 29 29 28 28 27 28 29
90 96 99 98 94 82 83 73 80 93 96 73 55 51 52 47 43 44 50 50 53 54 56 62 62 61 62 58 55 51 40 33 30 31 33 32 31 31 30 30 31 32 31 32
90 100 98 92 85 77 76 80 90 98 73 62 48 43 47 47 46 45 52 52 53 54 57 62 62 62 62 58 56 45 37 32 30 34 35 34 34 31 31 33 34 33 34 35
86 98 94 91 72 72 81 83 69 61 59 54 57 60 39 48 48 49 55 52 52 53 54 60 60 59 60 56 50 38 36 33 33 36 37 35 33 30 33 33 33 34 36 36
73 83 92 69 75 71 81 70 69 63 60 54 64 52 42 47 43 46 55 50 53 56 58 62 59 58 57 50 42 38 33 33 33 34 33 32 31 30 32 31 31 35 36 38
73 84 75 82 65 78 48 46 56 59 57 57 52 46 44 48 64 63 57 53 54 55 57 61 61 61 54 47 41 34 32 33 35 33 31 31 30 30 30 32 34 36 37 41
65 78 86 86 90 63 56 46 50 55 55 50 52 49 53 58 58 66 66 64 65 67 69 73 65 55 48 42 33 32 34 35 34 32 30 28 28 29 31 34 36 37 42 49
73 81 86 96 86 85 54 48 44 47 62 54 49 53 53 55 59 75 76 71 73 69 61 57 52 45 37 34 32 32 34 33 32 30 30 28 30 31 32 35 36 41 48 48
92 90 93 92 95 83 57 47 45 62 56 57 52 54 56 61 63 71 73 73 68 62 60 54 49 42 38 37 32 34 32 31 32 31 30 30 30 31 32 36 43 49 52 51
88 96 98 94 98 90 51 50 46 53 59 67 71 68 73 72 71 74 72 71 67 66 61 51 47 43 41 39 31 32 33 34 33 32 31 31 32 28 30 47 52 52 53 52
93 83 88 85 78 63 59 62 59 56 59 72 70 68 67 71 73 72 74 70 67 63 52 43 40 42 42 35 32 35 35 33 33 32 32 32 31 32 40 46 50 54 50 50
82 72 69 73 64 64 63 61 58 60 66 67 64 65 64 71 70 72 70 67 62 57 48 42 41 42 40 37 35 35 34 33 33 33 33 32 38 45 44 47 50 52 53 56
71 71 70 71 78 71 66 63 66 63 62 65 66 65 68 68 71 68 68 64 62 62 53 48 46 44 41 36 36 36 35 34 36 33 35 42 47 50 53 52 51 54 54 55
60 60 67 70 60 56 61 62 61 61 66 64 66 73 72 67 72 73 76 72 68 66 62 60 56 49 45 38 38 38 38 37 37 38 43 49 54 58 58 57 56 50 49 50
Wind_Speed
6 7 12 13 14 6 8 10 12 8 10 12 20 16 17 14 11 9 9 6 9 9 7 7 6 6 6 5 6 6 8 8 10 8 7 6 5 6 6 7 8 7 6 7
7 18 14 9 11 10 12 13 20 15 15 11 15 22 20 15 15 11 11 8 11 9 8 7 7 6 7 6 6 7 8 9 8 7 5 5 5 5 5 4 6 6 7 6
18 4 17 14 13 14 16 17 16 17 16 17 10 16 22 12 18 13 9 9 16 20 14 9 8 7 7 8 7 8 8 11 10 12 9 8 7 4 4 4 4 4 6 6
14 19 12 14 18 13 16 16 16 16 11 12 4 9 16 18 14 13 11 12 17 13 10 11 11 7 8 6 7 8 8 11 9 9 10 9 5 5 2 4 3 4 6 6
8 10 16 19 21 14 16 10 12 12 17 14 19 9 8 11 19 15 12 15 18 17 18 16 14 9 7 7 7 7 8 8 7 8 8 7 7 4 3 4 6 6 5 6
17 2 4 11 15 14 1 4 9 9 11 13 18 12 6 9 18 21 8 15 18 16 14 14 13 11 7 7 7 7 9 7 8 8 8 9 9 7 5 4 4 3 3 3
5 11 3 2 3 4 6 5 5 5 9 13 16 10 17 8 13 18 19 20 19 17 17 17 16 12 8 8 8 8 9 8 8 9 9 8 8 8 8 5 4 4 2 2
6 5 13 9 16 7 12 14 7 8 9 7 10 11 13 15 9 10 17 22 20 18 16 16 15 12 9 9 8 9 9 9 8 8 8 7 8 5 4 5 4 3 2 2
6 7 3 5 8 17 8 12 21 6 5 2 6 10 4 1 8 16 19 20 19 17 17 17 15 13 9 8 9 9 9 8 8 8 7 7 7 7 6 6 4 3 2 2
3 6 4 12 12 12 11 10 11 5 5 7 8 5 6 5 12 15 19 19 17 16 15 15 14 13 8 8 8 9 8 9 7 8 7 6 7 6 6 5 5 4 3 3
7 5 3 2 9 18 10 12 9 5 7 3 5 7 7 12 15 17 17 17 18 18 17 15 14 13 10 8 10 9 8 9 8 7 7 7 6 6 6 5 4 3 3 4
10 4 5 14 10 10 15 11 10 6 7 12 5 5 2 10 10 14 16 17 16 16 15 14 15 13 12 11 10 10 8 8 7 7 7 7 6 6 6 5 4 3 4 4
8 5 4 4 6 5 17 15 14 14 11 9 5 4 4 8 8 9 14 14 14 16 15 14 14 13 13 10 10 9 8 8 7 7 7 6 6 6 5 3 3 4 4 4
13 6 8 3 2 6 9 19 12 10 6 4 2 7 3 5 8 8 12 15 16 17 17 14 13 13 11 10 10 8 8 7 7 7 7 6 5 4 3 2 3 3 3 5
4 6 5 13 17 13 11 13 17 23 12 5 4 7 8 9 9 9 12 14 16 15 16 16 16 13 11 11 9 9 8 7 7 7 6 6 4 3 3 3 3 4 4 5
10 5 9 8 8 14 11 13 17 11 5 3 5 3 4 4 7 7 13 17 17 15 15 14 14 14 13 12 11 11 9 7 8 7 6 5 4 3 2 2 3 5 6 6
6 3 6 3 11 7 1 18 9 5 1 4 4 6 5 5 9 9 9 14 15 13 13 15 15 13 12 12 13 12 9 8 7 7 6 5 4 3 2 3 4 5 6 6
6 1 3 4 5 1 5 2 6 8 4 6 3 5 2 9 5 7 2 10 12 14 14 13 12 10 11 10 11 11 9 8 7 6 5 4 3 2 3 4 4 5 4 5
5 4 3 1 2 6 3 2 4 7 7 7 10 5 12 8 8 9 9 6 6 8 8 8 8 12 12 13 12 12 9 7 7 6 5 4 3 2 3 4 5 5 4 4
6 5 3 3 1 3 4 3 2 1 3 3 2 9 14 6 5 4 3 10 13 13 11 13 13 13 14 10 11 11 8 7 6 5 5 3 2 2 3 4 5 3 3 5
4 2 5 1 2 8 5 3 3 3 5 4 3 8 10 6 3 10 8 11 10 12 13 12 12 11 11 9 10 10 7 7 5 5 4 2 2 2 3 4 3 4 5 6
5 5 3 3 2 8 4 2 3 4 2 4 6 9 16 15 16 13 12 11 12 13 11 11 11 10 7 8 10 8 7 6 5 4 3 2 2 3 3 4 5 6 6 6
5 7 6 8 7 2 3 3 1 3 5 3 10 9 17 16 14 12 11 10 9 10 9 8 10 9 6 7 8 8 6 6 5 4 2 1 3 3 3 4 6 5 5 5
3 4 4 4 4 3 2 2 3 4 7 8 11 12 14 17 12 12 11 9 8 8 9 8 10 9 7 6 7 7 6 6 5 4 1 2 2 4 5 4 4 4 4 5
5 9 6 2 2 2 1 2 6 8 10 12 9 11 13 16 11 11 10 9 7 7 6 7 8 8 7 7 7 6 6 6 4 3 1 2 3 4 5 4 4 4 5 6
5 7 6 7 8 6 4 8 9 13 10 12 16 10 7 11 11 10 8 7 7 7 6 6 7 8 7 7 6 6 6 5 4 2 2 3 2 3 3 4 5 8 13 16
Wind_Direction
232 212 213 215 227 225 270 279 271 273 241 220 234 246 252 241 238 241 238 206 162 149 169 142 126 110 114 95 116 113 111 111 109 106 105 92 92 89 78 75 73 66 65 60
253 240 215 219 227 235 244 266 267 286 269 245 241 240 241 225 237 225 219 181 159 147 145 142 120 95 78 82 82 79 86 90 99 103 102 105 108 83 93 88 75 75 70 63
220 185 201 208 222 222 229 230 251 261 294 293 260 262 249 241 222 223 217 172 172 158 156 141 118 113 103 93 91 95 98 102 105 111 107 98 85 67 73 73 85 79 78 70
241 237 244 215 234 215 240 231 248 257 274 259 222 263 250 225 219 217 218 161 169 160 146 138 130 125 118 108 98 94 98 110 112 118 117 125 129 134 149 134 128 101 80 65
208 173 204 222 229 208 252 243 263 252 262 272 265 254 261 207 228 221 214 172 167 164 154 145 134 130 119 111 103 99 96 95 108 108 116 119 112 114 106 101 108 93 72 62
234 77 206 229 230 220 256 312 304 284 278 247 237 253 231 210 212 221 174 172 158 155 143 133 125 120 120 113 105 98 97 88 90 101 107 115 121 118 103 94 90 88 90 54
165 240 251 146 169 223 170 212 235 217 224 234 192 203 260 236 220 199 169 167 157 149 142 139 134 134 136 131 123 112 105 96 93 94 95 105 107 102 106 103 106 98 73 41
179 278 187 183 210 190 189 182 220 205 217 221 200 198 236 240 210 147 153 152 147 146 145 144 140 139 142 141 134 119 113 111 101 98 98 96 99 101 100 107 103 95 85 92
179 240 143 189 181 194 186 203 216 311 259 211 186 237 270 136 99 130 140 146 151 148 150 146 142 146 152 146 141 133 125 116 110 111 104 99 101 102 108 102 96 93 63 65
164 275 178 253 205 224 224 156 182 195 241 204 215 198 195 192 149 145 149 153 152 149 147 148 148 149 152 145 136 126 126 126 127 117 114 111 113 113 111 97 86 73 47 32
177 225 160 106 228 187 181 191 190 217 234 249 157 252 205 175 165 156 160 160 158 157 155 151 149 151 146 136 139 134 128 127 124 120 116 114 113 108 97 92 79 64 47 19
194 232 228 239 235 238 181 197 176 211 176 229 147 269 340 158 154 150 163 165 158 152 150 148 149 146 144 148 140 141 133 129 131 129 121 120 111 98 91 81 66 50 28 8
169 232 276 211 166 193 180 184 207 197 280 271 121 222 347 109 135 154 150 153 149 147 147 148 147 150 152 147 144 140 134 133 133 126 122 111 104 96 91 78 50 29 11 350
167 228 232 285 5 163 200 188 168 209 241 234 101 127 104 125 145 144 149 155 154 156 155 149 149 154 153 149 147 137 134 135 131 120 116 114 112 111 108 75 38 14 347 329
175 261 237 254 246 240 166 187 199 222 242 74 177 130 190 181 177 165 149 145 147 156 160 162 160 157 153 148 141 132 133 131 127 116 116 126 126 119 95 56 11 336 333 321
202 265 297 346 148 176 201 206 203 221 219 140 122 341 202 133 100 134 153 157 163 164 162 157 156 155 157 152 143 137 137 131 119 120 129 134 121 99 77 22 345 338 333 326
172 263 325 351 169 163 154 212 203 215 120 148 121 221 120 145 163 165 158 159 161 161 156 157 159 157 153 149 142 139 135 124 120 127 137 132 120 91 34 1 352 341 326 322
180 145 290 324 20 65 247 21 203 191 197 196 260 101 100 124 92 48 320 153 159 156 154 152 150 135 131 123 123 123 123 123 127 131 135 132 120 95 28 1 340 327 309 311
185 160 315 26 270 277 23 19 135 168 247 194 192 146 125 146 82 21 5 63 115 118 112 109 109 122 118 121 124 122 121 121 123 134 135 125 111 53 5 332 316 303 292 301
124 114 136 35 138 186 240 293 319 125 282 359 135 165 156 166 127 176 8 80 76 79 98 105 105 107 110 120 124 121 125 124 128 135 134 120 93 33 321 302 298 271 278 299
122 112 164 224 331 291 244 296 314 123 236 311 226 176 158 130 174 134 115 77 81 94 100 98 99 111 123 122 122 122 121 127 138 132 123 98 58 334 283 295 279 292 325 326
153 146 148 135 189 269 161 65 154 196 4 67 60 102 97 109 104 107 104 102 103 104 98 102 108 113 112 110 115 116 121 142 131 125 110 57 349 304 316 305 319 338 328 307
174 185 175 183 211 270 46 101 151 138 124 96 107 108 115 113 112 111 112 109 103 106 106 108 114 106 93 108 121 122 149 134 127 110 85 10 319 320 336 345 335 325 315 307
257 168 181 127 231 198 122 50 52 104 112 109 113 119 120 119 119 115 115 117 117 117 121 118 115 109 101 111 113 122 134 126 112 108 78 331 341 358 355 348 320 309 309 313
198 145 182 255 287 32 298 170 130 103 106 101 95 115 123 120 118 124 127 127 126 120 121 125 126 126 126 114 114 123 123 116 117 123 39 14 13 8 335 318 305 314 295 322
191 172 167 217 187 173 187 149 142 119 122 124 120 101 89 119 122 125 124 129 130 127 123 122 125 125 133 124 125 126 125 126 135 106 33 353 351 329 317 310 313 327 335 331